{"data":{"norad_id":48478,"intl_designator":"2021-040BC","name":"STARLINK-2728","alt_names":[],"object_type":"PAYLOAD","status":"ACTIVE","operator":null,"country":"US","launch_date":"2021-05-09","launch_site_code":"AFETR","launch_vehicle":null,"mission":null,"orbit_class":"UNKNOWN","rcs_meters":null,"size_class":null,"mass_kg":null,"dimensions":null,"purposes":["comms"],"wikipedia_slug":null,"has_3d_model":false,"image_url":null,"decayed_at":null,"tle_current":{"epoch":"2026-05-25T03:07:16.313952Z","epoch_age_seconds":70686,"freshness":"FRESH","line1":"1 48478U 21040BC  26145.13004993 -.00001442  00000+0 -34720-4 0  9997","line2":"2 48478  53.1586 195.6095 0001222  81.4154 278.6986 15.31680925278201","mean_motion":15.31680925,"eccentricity":0.0001222,"inclination_deg":53.1586,"raan_deg":195.6095,"arg_perigee_deg":81.4154,"mean_anomaly_deg":278.6986,"bstar":-3.472e-5,"rev_number":27820,"period_min":94.014358767313,"perigee_km":469.9599176808,"apogee_km":471.63379711555,"semimajor_km":6848.9338573982,"source":"CELESTRAK","updated_at":"2026-05-25T13:38:16.722362Z"}}}